Weather in Hrygorivka

Ukraine / Zaporizhia Region     47°41′36″N   35°21′27″E
temp.,
°C
wind,
m/s
gust,
m/s
humid.,
%
clouds,
%
prec.,
mm/h
press.,
hPa
HPBL,
m
29 june, wed
wed2900:00+22e237542 0.4 101576
03:00+20ne34804 0.4 101582
06:00+21ne48810 0.0 1015225
09:00+27ene68540 0.0 1015817
12:00+31e66404 0.0 10152145
15:00+33ene652974 0.0 10143249
18:00+30ene563896 0.0 10131260
21:00+25ene4104866 0.1 1015273
30 june, thu
thu3000:00+23e5104619 0.0 1015287
03:00+19e36605 0.0 1016132
06:00+19ese365493 0.0 1015151
09:00+24se234095 0.0 1015389
12:00+27n2236100 0.1 10141222
15:00+21ene4462100 0.9 1015362
18:00+21ne555834 0.0 1014578
21:00+18ne58690 0.0 1015293
1 july, fri
fri100:00+14ne59870 0.0 1016251
03:00+14ne410894 0.0 1016238
06:00+15ne410795 0.0 1017270
09:00+22ne67510 0.0 1017948
12:00+26nne56410 0.0 10172163
15:00+28nne77310 0.0 10162498
18:00+27nne67310 0.0 10162422
21:00+21ne494517 0.0 1017199
2 july, sat
sat200:00+19ne410560 0.0 1018209
03:00+16ne48650 0.0 1019142
06:00+16ne35680 0.0 1020144
09:00+22ne45440 0.0 10201048
12:00+26ne55300 0.0 10201988
15:00+27ne44260 0.0 10202260
18:00+26nne55270 0.0 10192059
21:00+21ne35420 0.0 1020102
3 july, sun
sun300:00+18e22510 0.0 102136
03:00+16ene11560 0.0 102018
06:00+17ne11563 0.0 102129
09:00+24nnw11380 0.0 1020698
12:00+28n12300 0.0 10201842
15:00+30wsw122910 0.0 10182449
18:00+29se123230 0.0 10181533
21:00+24sw114311 0.0 101822